Regional Weather Roundup
Issued by NWS

Home | Current Version | Previous Version | Graphics & Text | Print | Product List | Glossary Off
Versions: 1 2 3 4 5 6 7 8 9 10 11 12 13 14 15 16 17 18 19 20 21 22 23 24 25 26 27 28 29 30 31 32 33 34 35 36 37 38 39 40 41 42 43 44 45 46 47 48 49 50

000
ASUS43 KMPX 181210
RWRMN
WEATHER ROUNDUP FOR MINNESOTA
NATIONAL WEATHER SERVICE TWIN CITIES/CHANHASSEN MN
600 AM CST THU DEC 18 2014


NOTE: "FAIR" INDICATES FEW OR NO CLOUDS BELOW 12,000 FEET WITH NO
SIGNIFICANT WEATHER AND/OR OBSTRUCTIONS TO VISIBILITY. N/A MEANS
CURRENT SKY AND/OR WEATHER CONDITIONS ARE NOT AVAILABLE.

MNZ060>063-068>070-181300-
   Twin Cities Metro

CITY           SKY/WX    TMP DP  RH WIND       PRES   REMARKS
TWIN CITIES    MOCLDY    14  10  84 CALM      30.30S
6HR MIN TEMP:  11; 6HR MAX TEMP:  15;

ST PAUL        CLOUDY    17  12  80 CALM      30.31F
CRYSTAL        CLOUDY    14   9  80 CALM      30.29F
BLAINE         CLOUDY    18  16  93 CALM      30.29S
LAKEVILLE      CLEAR      7   5  92 CALM      30.28F
EDEN PRAIRIE   PTCLDY    11   6  81 CALM      30.28F
6HR MIN TEMP:   9; 6HR MAX TEMP:  14;

SOUTH ST PAUL  CLOUDY    17  13  86 CALM      30.30S
LAKE ELMO      CLOUDY    19  18  93 CALM      30.30S
$$
MNZ001>005-007-008-013>017-022>024-027-028-181300-
   Northwest Minnesota

CITY           SKY/WX    TMP DP  RH WIND       PRES   REMARKS
BEMIDJI        PTCLDY     3  -1  86 CALM      30.24F
HALLOCK        PTCLDY     7   3  85 SE6       30.26F WCI  -3
ROSEAU         PTCLDY     3   0  85 CALM      30.26F
WARROAD        PTCLDY     5   1  85 CALM      30.27S
THIEF RVR FALL PTCLDY     9   7  92 SE5       30.25S WCI   0
CROOKSTON      PTCLDY     7   3  85 SE6       30.28S WCI  -3
FOSSTON        CLEAR      3   1  92 CALM      30.24F
DETROIT LAKES  PTCLDY    10   9  92 SE5       30.25S WCI   2
MOORHEAD       CLEAR      7   7 100 CALM      30.27S
PARK RAPIDS    PTCLDY     4  -1  80 CALM      30.24S
MAHNOMEN       FAIR       7   4  87 SE5       30.25R WCI  -2
$$
MNZ006-009>011-018-025>026-181300-
   North Central Minnesota

CITY           SKY/WX    TMP DP  RH WIND       PRES   REMARKS
BAUDETTE       MOCLDY     4   0  83 E6        30.27F WCI  -7
FLAG ISLAND    PTCLDY     7   3  85 CALM      30.27F
INTL FALLS     PTCLDY     1  -3  83 SE3       30.30R
6HR MIN TEMP:  -1; 6HR MAX TEMP:   4;

WASKISH        MOCLDY     1   0  92 CALM      30.27S
BIG FORK       PTCLDY    -2  -6  84 CALM      30.27
LONGVILLE      PTCLDY    -2  -6  84 CALM      30.27S
GRAND RAPIDS   PTCLDY     0  -2  92 S3        30.26S
CRANE LAKE     LGT SNOW   1  -2  85 CALM      30.34S
ORR            CLOUDY    10   7  85 CALM      30.26S
COOK           FLURRIES  10   7  85 CALM      30.28F
WALKER         FAIR       0  -3  85 CALM      30.25S
$$
MNZ012-019>021-037-181300-
   Northeast Minnesota

CITY           SKY/WX    TMP DP  RH WIND       PRES   REMARKS
DULUTH         FLURRIES  19  14  81 CALM      30.26F
6HR MIN TEMP:  17; 6HR MAX TEMP:  19; 6HR PCP: TRACE;

ELY            CLOUDY     7   3  85 CALM      30.29S
HIBBING        CLOUDY    15  10  80 CALM      30.27F
EVELETH        FLURRIES  14  12  92 CALM      30.28F
DULUTH HARBOR  CLOUDY    23  19  86 CALM      30.32S
TWO HARBORS    CLOUDY    25  19  80 NE6       30.26F WCI  18
SILVER BAY     CLOUDY    23  18  80 N3        30.28S
GRAND MARAIS     N/A     11  -1  58 N7        30.35S WCI   0
G MARAIS ARPRT MOCLDY    -9 -17  70 N6        30.26S WCI -23
$$
MNZ029>031-032-039>041-046>048-054>057-064-181300-
   West Central Minnesota

CITY           SKY/WX    TMP DP  RH WIND       PRES   REMARKS
FERGUS FALLS   PTCLDY     9   5  85 SE5       30.29F WCI   0
WHEATON        MOCLDY     1   0  92 CALM      30.27S
MORRIS         PTCLDY     7   3  85 E7        30.24F WCI  -5
ALEXANDRIA     CLEAR      8   5  87 SE3       30.25S
ELBOW LAKE     FAIR       9   6  90 E6        30.24F WCI  -1
WADENA         PTCLDY     1   0  92 CALM      30.25S
GLENWOOD       CLEAR      7   5  92 E3        30.25S
APPLETON       PTCLDY     7   3  85 CALM      30.26F
BENSON         PTCLDY     5   1  85 SE3       30.26F
ORTONVILLE     MOCLDY     9   3  78 CALM      30.25S
MADISON        PTCLDY     9   7  92 CALM      30.26S
WILLMAR        FAIR      10   9  92 E5        30.27F WCI   2
$$
MNZ033>034-036-042>043-049>051-058-059-181300-
   Central Minnesota

CITY           SKY/WX    TMP DP  RH WIND       PRES   REMARKS
ST CLOUD       MOCLDY    10   4  76 CALM      30.28F
6HR MIN TEMP:   9; 6HR MAX TEMP:  13;

SAUK CENTRE    FAIR       5   2  88 CALM      30.27S
PAYNESVILLE    PTCLDY     4   3  94 CALM      30.28S
AITKIN         LGT RAIN   9   3  78 CALM      30.27S
PINE RIVER     PTCLDY     1  -2  85 CALM      30.29S
BRAINERD       MOCLDY     0  -4  83 CALM      30.28F
STAPLES        PTCLDY     3   1  92 CALM      30.26S
LONG PRAIRIE   FAIR       5   3  92 CALM      30.27S
LITTLE FALLS   PTCLDY     3   1  92 CALM      30.28F
LITCHFIELD     PTCLDY    10  10 100 CALM      30.28S
BUFFALO        PTCLDY    10   7  89 CALM      30.30S
MAPLE LAKE     PTCLDY    10   8  92 CALM      30.29S
$$
MNZ037-044-045-052-053-181300-
   East Central Minnesota

CITY           SKY/WX    TMP DP  RH WIND       PRES   REMARKS
PRINCETON      FLURRIES  16  12  86 CALM      30.28F
MORA           CLOUDY    16  12  86 CALM      30.31F
CAMBRIDGE      CLOUDY    19  12  73 CALM      30.27F
RUSH CITY      CLOUDY    18  15  89 CALM      30.30F
MOOSE LAKE     FLURRIES  18  14  86 CALM      30.29R
HINCKLEY       FLURRIES  19  18  93 CALM      30.30S
CLOQUET        CLOUDY    18  14  86 CALM      30.27S
MCGREGOR       CLOUDY    14  14 100 CALM      30.29S
$$
MNZ071>073-080-081-089-090-097-098-181300-
   Southwest Minnesota

CITY           SKY/WX    TMP DP  RH WIND       PRES   REMARKS
MONTEVIDEO     PTCLDY     5   3  92 CALM      30.27F
GRANITE FALLS  PTCLDY     4   1  87 CALM      30.28S
CANBY          CLOUDY     8   6  92 CALM      30.26S
MARSHALL       CLOUDY     7   1  78 CALM      30.25R
REDWOOD FALLS  PTCLDY     5   2  87 CALM      30.27F
OLIVIA         PTCLDY    10   9  92 CALM      30.27S
PIPESTONE      CLOUDY    16  12  86 CALM      30.19S
WINDOM           N/A     10   9  92 CALM      30.23S
WORTHINGTON    CLOUDY    12  12 100 E5        30.22S WCI   4
JACKSON        CLOUDY    16  12  86 E5        30.23S WCI   9
TRACY          CLOUDY    12  10  91 CALM      30.24S
SLAYTON        CLOUDY    12  11  96 CALM      30.22S
$$
MNZ065>067-074>077-082>085-091>093-181300-
   South Central Minnesota

CITY           SKY/WX    TMP DP  RH WIND       PRES   REMARKS
MANKATO        PTCLDY    12   7  79 E5        30.27R WCI   4
NEW ULM        CLOUDY    16  14  93 CALM      30.27S
ST JAMES       CLOUDY    12  10  92 CALM      30.28S
FAIRMONT       CLOUDY    14  10  85 CALM      30.25S
GLENCOE        PTCLDY    11   9  92 CALM      30.27F
FARIBAULT      CLEAR     10   7  85 CALM      30.27F
OWATONNA       CLEAR     10   7  85 CALM      30.26S
WASECA         PTCLDY    12  10  92 CALM      30.28R
ALBERT LEA     MOCLDY    14  12  92 CALM      30.25R
$$
MNZ078>079-086>088-094>096-181300-
   Southeast Minnesota

CITY           SKY/WX    TMP DP  RH WIND       PRES   REMARKS
ROCHESTER      PTCLDY    12   9  87 N5        30.25F WCI   4
6HR MIN TEMP:  12; 6HR MAX TEMP:  16;

RED WING       CLOUDY    16  12  86 W3        30.29S
STANTON        CLEAR      9   6  87 CALM      30.27F
DODGE CENTER   CLEAR     10   9  92 CALM      30.24S
WINONA         CLOUDY    19  16  86 NW3       30.30S
AUSTIN         MOCLDY    14  10  85 CALM      30.25S
PRESTON        PTCLDY    12  10  89 CALM      30.26S
$$
ABBREVIATIONS USED IN REMARKS
   TC - TEMPERATURES IN CELSIUS
  WCI - WIND CHILL INDEX
   HX - HEAT INDEX
  VSB - VISIBILITY
$$



USA.gov is the U.S. government's official web portal to all federal, state and local government web resources and services.